Cloud_Cover
5 44 98 100 80 0 0 0 4 4 2 56 5 1 0 0 0 0 0 0 0 0 0 0 63 88 100 100 84 5 86 100 100 100 100 100 100 100 100 100 100 100 100 100
58 92 3 2 0 5 5 5 0 5 5 60 16 5 0 0 0 0 0 0 0 0 0 0 4 85 97 68 100 86 5 100 100 100 98 86 100 100 100 100 100 100 100 100
71 4 5 5 3 0 4 4 4 3 30 99 31 4 0 0 0 0 0 0 0 0 0 0 4 30 5 98 100 100 100 70 100 100 100 100 100 100 100 100 100 100 100 100
85 22 7 5 2 4 0 0 0 6 31 5 62 12 0 0 0 0 0 0 0 0 0 0 0 2 7 81 100 100 100 100 100 100 100 100 100 100 100 100 100 100 100 100
9 5 5 5 0 5 0 3 0 4 5 47 2 62 0 0 0 0 0 0 0 0 0 0 0 0 4 5 100 100 100 100 100 100 68 100 100 100 100 100 100 100 100 100
2 0 5 1 1 5 4 65 11 30 38 72 0 5 0 0 0 0 0 0 0 0 0 0 0 0 0 12 100 100 100 100 100 100 93 45 100 100 100 100 100 100 100 100
90 59 19 24 80 12 46 60 100 100 100 38 4 50 0 0 0 0 0 1 22 9 5 0 0 0 0 0 97 90 76 100 100 100 98 92 100 100 100 100 100 100 100 100
82 98 24 7 34 69 5 55 95 100 64 18 33 38 0 0 0 0 4 1 3 68 98 7 1 0 0 0 0 100 85 100 100 100 98 85 87 98 100 100 100 100 100 100
94 38 8 5 1 14 81 98 53 100 100 100 26 0 0 0 0 0 18 1 3 77 5 5 4 0 0 0 0 0 87 100 93 100 100 100 100 99 100 100 100 99 100 100
59 78 16 78 78 93 88 83 100 100 100 89 6 23 30 8 9 3 25 32 10 71 34 5 5 0 0 0 0 0 3 98 100 73 100 100 100 100 100 100 100 100 100 100
100 76 94 20 95 43 100 100 100 100 100 81 90 88 100 100 100 100 52 100 16 32 40 4 0 0 0 0 1 0 4 5 99 98 99 100 100 100 100 100 100 100 100 100
99 100 100 100 94 74 100 100 100 100 100 100 100 100 100 100 100 98 90 5 0 0 2 3 4 2 0 0 0 5 0 5 96 92 86 100 100 100 100 100 100 100 100 100
47 100 100 100 100 100 100 100 100 100 100 100 100 100 100 100 100 100 83 53 46 32 48 12 16 4 5 5 3 2 4 6 98 100 100 95 100 100 100 100 100 100 100 100
100 100 86 5 46 84 100 100 100 100 100 100 100 100 100 100 100 100 100 99 100 9 5 5 32 17 5 95 48 5 2 0 4 67 100 100 100 100 100 100 100 100 100 100
84 100 100 100 100 89 100 100 93 100 100 100 100 100 100 100 100 100 100 100 94 40 5 18 12 49 5 66 100 92 5 5 5 25 54 62 96 100 100 100 100 100 100 100
100 100 100 100 100 62 84 99 100 100 100 100 100 100 100 100 100 100 100 100 100 94 95 25 5 44 73 8 91 94 72 6 6 96 100 100 100 55 24 73 100 100 100 100
100 100 100 100 100 94 34 39 100 100 100 100 100 100 100 100 100 100 100 100 100 100 79 5 10 5 5 4 4 58 87 90 30 98 98 100 100 100 100 72 62 95 100 72
100 100 100 100 100 93 0 35 5 29 75 100 100 100 100 100 100 100 100 100 100 100 88 56 39 5 5 1 5 5 5 5 62 77 97 100 99 100 100 100 100 95 100 100
100 100 100 97 89 7 1 20 6 0 5 7 63 100 100 100 100 100 100 100 100 100 100 100 100 94 30 5 5 5 5 41 89 64 97 66 60 100 100 100 100 100 100 100
100 100 100 99 95 67 28 28 100 79 87 100 91 71 64 98 100 100 100 100 100 100 100 100 66 7 11 99 16 26 88 5 71 92 86 83 34 100 100 100 100 100 100 100
100 100 98 93 71 52 7 7 67 56 69 52 5 5 5 5 48 100 100 100 100 100 100 100 89 38 5 5 51 100 69 68 63 87 98 87 58 100 100 100 100 100 100 100
100 100 99 98 100 73 10 5 5 32 30 5 5 30 38 24 17 5 5 19 51 61 57 36 26 28 6 45 69 86 100 100 89 100 100 99 100 100 100 100 100 100 100 100
100 69 21 31 71 22 8 5 49 5 13 5 5 4 1 5 3 5 5 5 5 5 52 73 36 91 80 69 83 100 90 100 100 100 100 100 100 100 100 100 100 100 100 100
13 76 92 33 86 5 5 5 5 6 34 5 5 5 5 26 26 62 99 100 100 100 100 99 98 100 99 98 89 99 100 100 100 100 100 99 100 100 100 100 100 100 100 100
98 61 86 100 100 68 45 5 67 11 5 5 5 5 5 5 5 81 44 84 100 95 51 88 100 100 100 100 99 100 100 100 100 100 100 100 100 92 100 100 100 100 100 100
89 98 66 81 87 99 89 57 20 14 6 8 29 21 12 54 80 86 100 100 100 99 98 100 100 100 100 100 100 100 100 100 100 100 100 100 100 100 100 100 100 100 100 100